DECAYED

ELECTRON R/B, 65303 (Decayed)

Orbit data source: Space-Track

ELECTRON R/B, 65303 was space debris in LEO originally from a launch on Sat, 23 Aug 2025 UTC launched from the Rocket Lab Launch Complex (RLLC). Debris objects in space refer to the collection of defunct objects orbiting the Earth. Examples of debris include non-operational satellites, rocket bodies, and fragments generated from explosions, collisions, or faulty payload assembly.

Not visible in the next 10 days
Identifier
65303, 2025-185G
Orbit
Decayed
Country
Flag of USUS
Related business
Manufacturer
Rocket Lab
Mission
Decayed spacecraft
Bus & Motor
ELECTRON ST2, Unknown motor
Mass
250 kg wet, ~250 kg dry
Launch date (UTC)
2025-08-23 (10 months ago)
Launch vehicle
Unknown
Launch site
Rocket Lab Launch Complex (RLLC)
Object type
Payload
Rocket body
Debris
Shape & HBR
Cyl, 8.0 m
Radar Cross Section
2.827 m², Large (>1 m²)

Expand to show TLE details & history
Last TLE update: 9 months ago

TLE from 9 months ago
0 ELECTRON R/B
1 65303U 25185G   25247.34923822  .15673738  19122-5  39868-3 0  9998
2 65303  97.9414 331.8229 0074416 201.8355 157.9764 16.34376737  1790
Epoch: 2025-09-04T08:22Z
TLE epoch observation values (Epoch: 2025-09-04T08:22:54.182Z)
Latitude
-0.00004°
Longitude
-137.6159°
Altitude
229.34 km
Speed
7.742 km/s
True Right ascension
22h 07m 17s
True Declination
0° 00' 00"
Sunlit
Object was in full shadow at epoch
Visualization orbit readout
Latitude
Unknown
Longitude
Unknown
Altitude
Unknown
Speed
Unknown
Apparent Right ascension
Unknown
Apparent Declination
Unknown
Sunlit
N/A
Visualization observer readout
Local Sidereal Time
12:55:50
Azimuth
Unknown
Elevation
Unknown
Doppler factor
Unknown
Orbital elements
Apogee altitude
226.429 km
Perigee altitude
128.858 km
Semi-major axis
6,555.781 km
Eccentricity
0.00744
Inclination
97.9414°
RAAN
331.8229°
Arg. of periapsis
201.8355°
True anomaly
158.29343°
Mean anomaly
157.9764°
Eccentric anomaly
158.13519°
Mean motion
4.0889 °/min
Orbital period
88.04 mins
BSTAR
0.00039868
Loading maneuver chart data...
Computing Atmospheric mass density...
Loading historical data...
Loading historical data...
Loading historical data...
Loading historical data...
Loading historical data...
Loading historical data...
Loading historical data...
Other satellites on launch #185 in the year 2025 (2025-08-23 UTC)

Documentation

Showing up to 5 results
|